Simultaneous Nadir Overpasses (SNOs) Predictions

Prediction of SNOs between GOES-15 and NPP Satellite Orbit:

Table of predicted SNOs for the next 14.0 days since TLE Epoch: 4/3/2021
Index Date Time (GOES-15) GOES-15 Lat,Lon NPP Lat,Lon Distance(km) Time Diff (sec)
1 04/03/2021 22:14:12 0.03,-128.28 -0.91,-132.59 490.31 80
2 04/04/2021 21:58:06 0.04,-128.27 0.08,-128.05 24.55 80
3 04/07/2021 10:01:08 -0.03,-128.21 0.09,-128.78 65.40 80
4 04/08/2021 09:39:43 -0.04,-128.19 -0.89,-124.24 448.62 80
5 04/09/2021 22:01:39 0.02,-128.17 -0.26,-129.55 156.82 80
6 04/10/2021 21:45:33 0.03,-128.16 0.73,-125.01 357.91 80
7 04/12/2021 10:07:20 -0.02,-128.12 0.49,-130.27 245.93 80
8 04/13/2021 09:45:55 -0.03,-128.09 -0.56,-125.75 267.73 80
9 04/14/2021 22:07:51 0.02,-128.06 -0.65,-131.04 339.77 80
10 04/15/2021 21:51:45 0.02,-128.04 0.34,-126.50 174.31 80
